Time,TemperatureF,DewpointF,PressureIn,WindDirection,WindDirectionDegrees,WindSpeedMPH,WindSpeedGustMPH,Humidity,HourlyPrecipIn,Conditions,Clouds,dailyrainin,SoftwareType,DateUTC
2013-04-12 00:02:00,40.0,32.0,29.95,SE,144,0.0,4.0,72,0.00,,,0.00,,2013-04-12 06:02:00,
2013-04-12 00:12:00,40.0,32.0,29.95,SE,144,0.0,4.0,72,0.00,,,0.00,,2013-04-12 06:12:00,
2013-04-12 00:22:00,40.0,32.0,29.95,ESE,120,0.0,5.0,72,0.00,,,0.00,,2013-04-12 06:22:00,
2013-04-12 00:32:00,40.0,32.0,29.95,SE,138,1.0,3.0,73,0.00,,,0.00,,2013-04-12 06:32:00,
2013-04-12 00:42:00,40.0,32.0,29.95,SE,138,1.0,3.0,73,0.00,,,0.00,,2013-04-12 06:42:00,
2013-04-12 00:52:00,40.0,32.0,29.95,SE,134,0.0,3.0,73,0.00,,,0.00,,2013-04-12 06:52:00,
2013-04-12 01:01:00,39.0,31.0,29.95,SE,144,0.0,1.0,74,0.00,,,0.00,,2013-04-12 07:01:00,
2013-04-12 01:11:00,39.0,31.0,29.95,SE,144,0.0,1.0,74,0.00,,,0.00,,2013-04-12 07:11:00,
2013-04-12 01:22:00,39.0,32.0,29.95,SE,144,0.0,0.0,76,0.00,,,0.00,,2013-04-12 07:22:00,
2013-04-12 01:32:00,39.0,32.0,29.95,SSE,157,0.0,4.0,75,0.00,,,0.00,,2013-04-12 07:32:00,
2013-04-12 01:42:00,39.0,32.0,29.95,SSE,157,0.0,4.0,75,0.00,,,0.00,,2013-04-12 07:42:00,
2013-04-12 01:52:00,39.0,32.0,29.94,SE,136,0.0,4.0,76,0.00,,,0.00,,2013-04-12 07:52:00,
2013-04-12 02:03:00,39.0,32.0,29.94,SE,136,0.0,0.0,75,0.00,,,0.00,,2013-04-12 08:03:00,
2013-04-12 02:12:00,39.0,32.0,29.94,SE,136,0.0,0.0,75,0.00,,,0.00,,2013-04-12 08:12:00,
2013-04-12 02:22:00,38.0,30.0,29.94,SE,136,0.0,0.0,74,0.00,,,0.00,,2013-04-12 08:22:00,
2013-04-12 02:32:00,38.0,30.0,29.93,SE,136,0.0,0.0,74,0.00,,,0.00,,2013-04-12 08:32:00,
2013-04-12 02:42:00,38.0,30.0,29.93,SE,136,0.0,0.0,74,0.00,,,0.00,,2013-04-12 08:42:00,
2013-04-12 02:52:00,37.0,30.0,29.93,SE,136,0.0,0.0,76,0.00,,,0.00,,2013-04-12 08:52:00,
2013-04-12 03:02:00,37.0,30.0,29.93,SE,136,0.0,0.0,76,0.00,,,0.00,,2013-04-12 09:02:00,
2013-04-12 03:12:00,37.0,30.0,29.93,SE,136,0.0,0.0,76,0.00,,,0.00,,2013-04-12 09:12:00,
2013-04-12 03:22:00,37.0,30.0,29.92,SE,136,0.0,0.0,77,0.00,,,0.00,,2013-04-12 09:22:00,
2013-04-12 03:33:00,37.0,30.0,29.92,SE,136,0.0,0.0,76,0.00,,,0.00,,2013-04-12 09:33:00,
2013-04-12 03:43:00,37.0,30.0,29.92,SE,136,0.0,0.0,76,0.00,,,0.00,,2013-04-12 09:43:00,
2013-04-12 03:52:00,37.0,30.0,29.92,SE,136,0.0,0.0,76,0.00,,,0.00,,2013-04-12 09:52:00,
2013-04-12 04:03:00,37.0,30.0,29.92,SE,136,0.0,0.0,76,0.00,,,0.00,,2013-04-12 10:03:00,
2013-04-12 04:12:00,37.0,30.0,29.92,SE,136,0.0,0.0,76,0.00,,,0.00,,2013-04-12 10:12:00,
2013-04-12 04:23:00,36.0,30.0,29.90,SE,136,0.0,0.0,78,0.00,,,0.00,,2013-04-12 10:23:00,
2013-04-12 04:34:00,35.0,29.0,29.90,SE,136,0.0,0.0,80,0.00,,,0.00,,2013-04-12 10:34:00,
2013-04-12 04:42:00,35.0,29.0,29.90,SE,136,0.0,0.0,80,0.00,,,0.00,,2013-04-12 10:42:00,
2013-04-12 04:52:00,34.0,29.0,29.90,SE,136,0.0,0.0,81,0.00,,,0.00,,2013-04-12 10:52:00,
2013-04-12 05:02:00,34.0,28.0,29.90,SE,136,0.0,0.0,80,0.00,,,0.00,,2013-04-12 11:02:00,
2013-04-12 05:13:00,34.0,28.0,29.90,SE,136,0.0,0.0,80,0.00,,,0.00,,2013-04-12 11:13:00,
2013-04-12 05:22:00,34.0,27.0,29.89,ENE,71,0.0,2.0,75,0.00,,,0.00,,2013-04-12 11:22:00,
2013-04-12 05:32:00,34.0,26.0,29.89,ENE,71,0.0,0.0,73,0.00,,,0.00,,2013-04-12 11:32:00,
2013-04-12 05:42:00,34.0,26.0,29.89,ENE,71,0.0,0.0,73,0.00,,,0.00,,2013-04-12 11:42:00,
2013-04-12 05:52:00,34.0,27.0,29.88,ENE,71,0.0,0.0,74,0.00,,,0.00,,2013-04-12 11:52:00,
2013-04-12 06:02:00,34.0,27.0,29.88,ENE,71,0.0,0.0,75,0.00,,,0.00,,2013-04-12 12:02:00,
2013-04-12 06:13:00,34.0,27.0,29.88,ENE,71,0.0,0.0,75,0.00,,,0.00,,2013-04-12 12:13:00,
2013-04-12 06:22:00,33.0,27.0,29.88,ENE,71,0.0,0.0,77,0.00,,,0.00,,2013-04-12 12:22:00,
2013-04-12 06:33:00,32.0,26.0,29.88,ENE,71,0.0,0.0,78,0.00,,,0.00,,2013-04-12 12:33:00,
2013-04-12 06:42:00,32.0,26.0,29.88,ENE,71,0.0,0.0,78,0.00,,,0.00,,2013-04-12 12:42:00,
2013-04-12 06:52:00,32.0,27.0,29.88,ENE,71,0.0,0.0,80,0.00,,,0.00,,2013-04-12 12:52:00,
2013-04-12 07:03:00,31.0,26.0,29.88,ENE,71,0.0,0.0,82,0.00,,,0.00,,2013-04-12 13:03:00,
2013-04-12 07:12:00,31.0,26.0,29.88,ENE,71,0.0,0.0,82,0.00,,,0.00,,2013-04-12 13:12:00,
2013-04-12 07:22:00,31.0,26.0,29.88,ENE,71,0.0,0.0,83,0.00,,,0.00,,2013-04-12 13:22:00,
2013-04-12 07:32:00,31.0,26.0,29.88,ENE,71,0.0,0.0,83,0.00,,,0.00,,2013-04-12 13:32:00,
2013-04-12 07:42:00,31.0,26.0,29.88,ENE,71,0.0,0.0,83,0.00,,,0.00,,2013-04-12 13:42:00,
2013-04-12 07:52:00,31.0,26.0,29.88,ENE,71,0.0,0.0,83,0.00,,,0.00,,2013-04-12 13:52:00,
2013-04-12 08:03:00,32.0,27.0,29.88,ENE,71,0.0,0.0,81,0.00,,,0.00,,2013-04-12 14:03:00,
2013-04-12 08:12:00,32.0,27.0,29.88,ENE,71,0.0,0.0,81,0.00,,,0.00,,2013-04-12 14:12:00,
2013-04-12 08:22:00,34.0,28.0,29.88,ENE,71,0.0,0.0,77,0.00,,,0.00,,2013-04-12 14:22:00,
2013-04-12 08:33:00,36.0,28.0,29.89,West,272,2.0,4.0,73,0.00,,,0.00,,2013-04-12 14:33:00,
2013-04-12 08:42:00,36.0,28.0,29.89,West,272,2.0,4.0,73,0.00,,,0.00,,2013-04-12 14:42:00,
2013-04-12 08:53:00,37.0,29.0,29.88,NNW,340,0.0,3.0,72,0.00,,,0.00,,2013-04-12 14:53:00,
2013-04-12 09:02:00,38.0,29.0,29.88,WNW,301,0.0,3.0,70,0.00,,,0.00,,2013-04-12 15:02:00,
2013-04-12 09:12:00,38.0,29.0,29.88,WNW,301,0.0,3.0,70,0.00,,,0.00,,2013-04-12 15:12:00,
2013-04-12 09:22:00,38.0,29.0,29.88,West,281,0.0,3.0,69,0.00,,,0.00,,2013-04-12 15:22:00,
2013-04-12 09:33:00,39.0,29.0,29.88,West,280,0.0,3.0,68,0.00,,,0.00,,2013-04-12 15:33:00,
2013-04-12 09:43:00,39.0,29.0,29.88,West,280,0.0,3.0,68,0.00,,,0.00,,2013-04-12 15:43:00,
2013-04-12 09:53:00,40.0,29.0,29.87,WNW,287,0.0,4.0,65,0.00,,,0.00,,2013-04-12 15:53:00,
2013-04-12 10:03:00,41.0,30.0,29.87,North,351,1.0,3.0,65,0.00,,,0.00,,2013-04-12 16:03:00,
2013-04-12 10:13:00,41.0,30.0,29.87,North,351,1.0,3.0,65,0.00,,,0.00,,2013-04-12 16:13:00,
2013-04-12 10:23:00,41.0,30.0,29.87,WNW,299,0.0,0.0,64,0.00,,,0.00,,2013-04-12 16:23:00,
2013-04-12 10:33:00,44.0,31.0,29.86,WSW,237,0.0,2.0,60,0.00,,,0.00,,2013-04-12 16:33:00,
2013-04-12 10:42:00,44.0,31.0,29.86,WSW,237,0.0,2.0,60,0.00,,,0.00,,2013-04-12 16:42:00,
2013-04-12 10:52:00,46.0,31.0,29.86,SW,231,1.0,4.0,56,0.00,,,0.00,,2013-04-12 16:52:00,
2013-04-12 11:03:00,47.0,31.0,29.86,WSW,238,1.0,4.0,53,0.00,,,0.00,,2013-04-12 17:03:00,
2013-04-12 11:12:00,47.0,31.0,29.86,WSW,238,1.0,4.0,53,0.00,,,0.00,,2013-04-12 17:12:00,
2013-04-12 11:23:00,50.0,31.0,29.85,West,279,2.0,4.0,47,0.00,,,0.00,,2013-04-12 17:23:00,
2013-04-12 11:33:00,51.0,33.0,29.85,SW,214,0.0,4.0,50,0.00,,,0.00,,2013-04-12 17:33:00,
2013-04-12 11:44:00,51.0,33.0,29.85,SW,214,0.0,4.0,50,0.00,,,0.00,,2013-04-12 17:44:00,
2013-04-12 11:58:00,51.0,30.0,29.85,South,170,2.0,7.0,44,0.00,,,0.00,,2013-04-12 17:58:00,
2013-04-12 12:10:00,53.0,29.0,29.85,West,279,0.0,4.0,40,0.00,,,0.00,,2013-04-12 18:10:00,
2013-04-12 12:17:00,53.0,29.0,29.85,West,279,0.0,4.0,40,0.00,,,0.00,,2013-04-12 18:17:00,
2013-04-12 13:26:00,56.0,27.0,29.84,NW,323,0.0,10.0,32,0.00,,,0.00,,2013-04-12 19:26:00,
2013-04-12 13:27:00,56.0,27.0,29.83,NW,318,3.0,11.0,32,0.00,,,0.00,,2013-04-12 19:27:00,
2013-04-12 13:32:00,57.0,27.0,29.83,West,273,2.0,7.0,32,0.00,,,0.00,,2013-04-12 19:32:00,
2013-04-12 13:43:00,57.0,27.0,29.83,West,273,2.0,7.0,32,0.00,,,0.00,,2013-04-12 19:43:00,
2013-04-12 13:52:00,57.0,26.0,29.83,NW,326,2.0,9.0,30,0.00,,,0.00,,2013-04-12 19:52:00,
2013-04-12 14:02:00,59.0,26.0,29.83,NNW,348,4.0,9.0,28,0.00,,,0.00,,2013-04-12 20:02:00,
2013-04-12 14:12:00,59.0,26.0,29.83,NNW,348,4.0,9.0,28,0.00,,,0.00,,2013-04-12 20:12:00,
2013-04-12 14:22:00,59.0,26.0,29.83,NNW,348,4.0,9.0,28,0.00,,,0.00,,2013-04-12 20:22:00,
2013-04-12 14:32:00,59.0,22.0,29.83,North,5,6.0,11.0,24,0.00,,,0.00,,2013-04-12 20:32:00,
2013-04-12 14:42:00,59.0,22.0,29.83,North,5,6.0,11.0,24,0.00,,,0.00,,2013-04-12 20:42:00,
2013-04-12 14:52:00,57.0,19.0,29.84,NW,315,7.0,14.0,22,0.00,,,0.00,,2013-04-12 20:52:00,
2013-04-12 15:02:00,56.0,29.0,29.85,NE,36,11.0,22.0,35,0.00,,,0.00,,2013-04-12 21:02:00,
2013-04-12 15:12:00,56.0,29.0,29.85,NE,36,11.0,22.0,35,0.00,,,0.00,,2013-04-12 21:12:00,
2013-04-12 15:22:00,50.0,34.0,29.88,North,355,14.0,29.0,54,0.00,,,0.00,,2013-04-12 21:22:00,
2013-04-12 15:33:00,49.0,34.0,29.88,North,11,8.0,22.0,56,0.00,,,0.00,,2013-04-12 21:33:00,
2013-04-12 15:43:00,49.0,34.0,29.88,North,11,8.0,22.0,56,0.00,,,0.00,,2013-04-12 21:43:00,
2013-04-12 15:52:00,49.0,34.0,29.90,ENE,64,7.0,16.0,55,0.00,,,0.00,,2013-04-12 21:52:00,
2013-04-12 16:02:00,50.0,33.0,29.89,NE,46,7.0,22.0,52,0.00,,,0.00,,2013-04-12 22:02:00,
2013-04-12 16:13:00,50.0,33.0,29.89,NE,46,7.0,22.0,52,0.00,,,0.00,,2013-04-12 22:13:00,
2013-04-12 16:22:00,50.0,32.0,29.89,NNW,341,9.0,20.0,50,0.00,,,0.00,,2013-04-12 22:22:00,
2013-04-12 16:32:00,50.0,32.0,29.89,NNE,29,7.0,16.0,50,0.00,,,0.00,,2013-04-12 22:32:00,
2013-04-12 16:42:00,50.0,32.0,29.89,NNE,29,7.0,16.0,50,0.00,,,0.00,,2013-04-12 22:42:00,
2013-04-12 16:52:00,50.0,33.0,29.89,NNE,14,6.0,13.0,52,0.00,,,0.00,,2013-04-12 22:52:00,
2013-04-12 17:03:00,49.0,32.0,29.89,East,83,4.0,14.0,51,0.00,,,0.00,,2013-04-12 23:03:00,
2013-04-12 17:12:00,49.0,32.0,29.89,East,83,4.0,14.0,51,0.00,,,0.00,,2013-04-12 23:12:00,
2013-04-12 17:22:00,50.0,33.0,29.89,NNW,347,5.0,14.0,51,0.00,,,0.00,,2013-04-12 23:22:00,
2013-04-12 17:32:00,49.0,32.0,29.90,East,92,3.0,14.0,51,0.00,,,0.00,,2013-04-12 23:32:00,
2013-04-12 17:42:00,49.0,32.0,29.90,East,92,3.0,14.0,51,0.00,,,0.00,,2013-04-12 23:42:00,
2013-04-12 17:52:00,49.0,31.0,29.90,North,355,8.0,13.0,50,0.00,,,0.00,,2013-04-12 23:52:00,
2013-04-12 18:02:00,49.0,31.0,29.91,NE,44,4.0,11.0,50,0.00,,,0.00,,2013-04-13 00:02:00,
2013-04-12 18:12:00,49.0,31.0,29.91,NE,44,4.0,11.0,50,0.00,,,0.00,,2013-04-13 00:12:00,
2013-04-12 18:22:00,48.0,31.0,29.91,NNE,32,4.0,12.0,51,0.00,,,0.00,,2013-04-13 00:22:00,
2013-04-12 18:32:00,48.0,31.0,29.91,NNE,15,4.0,10.0,52,0.00,,,0.00,,2013-04-13 00:32:00,
2013-04-12 18:42:00,48.0,31.0,29.91,NNE,15,4.0,10.0,52,0.00,,,0.00,,2013-04-13 00:42:00,
2013-04-12 18:52:00,48.0,31.0,29.91,NNE,21,2.0,10.0,52,0.00,,,0.00,,2013-04-13 00:52:00,
2013-04-12 19:02:00,47.0,31.0,29.92,East,96,4.0,11.0,54,0.00,,,0.00,,2013-04-13 01:02:00,
2013-04-12 19:12:00,47.0,31.0,29.92,East,96,4.0,11.0,54,0.00,,,0.00,,2013-04-13 01:12:00,
2013-04-12 19:22:00,46.0,32.0,29.92,ESE,106,4.0,11.0,57,0.00,,,0.00,,2013-04-13 01:22:00,
2013-04-12 19:32:00,45.0,32.0,29.92,East,101,3.0,9.0,59,0.00,,,0.00,,2013-04-13 01:32:00,
2013-04-12 19:42:00,45.0,32.0,29.92,East,101,3.0,9.0,59,0.00,,,0.00,,2013-04-13 01:42:00,
2013-04-12 19:52:00,44.0,31.0,29.92,East,87,4.0,9.0,60,0.00,,,0.00,,2013-04-13 01:52:00,
2013-04-12 20:02:00,44.0,33.0,29.93,ESE,117,4.0,9.0,64,0.00,,,0.00,,2013-04-13 02:02:00,
2013-04-12 20:12:00,44.0,33.0,29.93,ESE,117,4.0,9.0,64,0.00,,,0.00,,2013-04-13 02:12:00,
2013-04-12 20:22:00,43.0,32.0,29.93,East,97,3.0,9.0,66,0.00,,,0.00,,2013-04-13 02:22:00,
2013-04-12 20:32:00,42.0,32.0,29.93,SE,134,3.0,11.0,67,0.00,,,0.00,,2013-04-13 02:32:00,
2013-04-12 20:42:00,42.0,32.0,29.93,SE,134,3.0,11.0,67,0.00,,,0.00,,2013-04-13 02:42:00,
2013-04-12 20:52:00,42.0,33.0,29.93,ESE,111,3.0,8.0,69,0.00,,,0.00,,2013-04-13 02:52:00,
2013-04-12 21:02:00,41.0,32.0,29.93,ESE,119,3.0,9.0,70,0.00,,,0.00,,2013-04-13 03:02:00,
2013-04-12 21:12:00,41.0,32.0,29.93,ESE,119,3.0,9.0,70,0.00,,,0.00,,2013-04-13 03:12:00,
2013-04-12 21:23:00,41.0,33.0,29.94,ESE,102,5.0,9.0,73,0.00,,,0.00,,2013-04-13 03:23:00,
2013-04-12 21:33:00,40.0,33.0,29.94,ESE,117,1.0,9.0,76,0.00,,,0.00,,2013-04-13 03:33:00,
2013-04-12 21:42:00,40.0,33.0,29.94,ESE,117,1.0,9.0,76,0.00,,,0.00,,2013-04-13 03:42:00,
2013-04-12 21:53:00,39.0,32.0,29.95,ESE,111,0.0,5.0,77,0.00,,,0.00,,2013-04-13 03:53:00,
2013-04-12 22:03:00,39.0,32.0,29.95,SE,140,3.0,9.0,76,0.00,,,0.00,,2013-04-13 04:03:00,
2013-04-12 22:12:00,39.0,32.0,29.95,SE,140,3.0,9.0,76,0.00,,,0.00,,2013-04-13 04:12:00,
2013-04-12 22:23:00,39.0,32.0,29.95,SE,143,1.0,4.0,76,0.00,,,0.00,,2013-04-13 04:23:00,
2013-04-12 22:33:00,38.0,31.0,29.95,ESE,120,2.0,7.0,76,0.00,,,0.00,,2013-04-13 04:33:00,
2013-04-12 22:42:00,38.0,31.0,29.95,ESE,120,2.0,7.0,76,0.00,,,0.00,,2013-04-13 04:42:00,
2013-04-12 22:53:00,38.0,31.0,29.95,ESE,115,1.0,4.0,76,0.00,,,0.00,,2013-04-13 04:53:00,
2013-04-12 23:02:00,38.0,31.0,29.95,SE,126,0.0,3.0,77,0.00,,,0.00,,2013-04-13 05:02:00,
2013-04-12 23:12:00,38.0,31.0,29.95,SE,126,0.0,3.0,77,0.00,,,0.00,,2013-04-13 05:12:00,
2013-04-12 23:22:00,38.0,32.0,29.95,ESE,121,1.0,5.0,78,0.00,,,0.00,,2013-04-13 05:22:00,
2013-04-12 23:32:00,37.0,31.0,29.94,SE,132,0.0,3.0,79,0.00,,,0.00,,2013-04-13 05:32:00,
2013-04-12 23:42:00,37.0,31.0,29.94,SE,132,0.0,3.0,79,0.00,,,0.00,,2013-04-13 05:42:00,
2013-04-12 23:52:00,37.0,31.0,29.94,SE,132,0.0,2.0,80,0.00,,,0.00,,2013-04-13 05:52:00,